Home   Weather   Ganganagar   Past weeks

Flag for India Past Weather in Ganganagar, Rajasthan, India — Yesterday and Last 2 Weeks

Now
82 °F

Fog.


Feels Like: 89 °F
Forecast: 79 / 103 °F
Wind: 3 mph from Southwest

Location: Lahore Airport

Current Time: Sep 30, 2016 at 8:54:43 AM

Latest Report: Sep 30, 2016 at 8:25 AM


Visibility: 1 mi

Pressure: 29.77 "Hg

Humidity: 79%

Dew Point: 75 °F

Location of GanganagarLocation

Past Weather in Ganganagar — Graph

°F

Ganganagar Temperature Yesterday

Maximum temperature yesterday: 97 °F (at 3:25 PM)
Minimum temperature yesterday: 79 °F (at 6:00 AM)
Average temperature yesterday: 87 °F

High & Low Weather Summary for the Past Weeks

 TemperatureHumidityPressure
High99 °F (Sep 19, 3:30 PM)89% (Sep 21, 7:25 AM)29.86 "Hg (Sep 21, 7:25 AM)
Low73 °F (Sep 23, 6:25 AM)17% (Sep 21, 8:59 AM)29.59 "Hg (Sep 20, 4:55 PM)
Average87 °F66%29.71 "Hg
* Reported Sep 15 6:55 AM — Sep 30 6:55 AM, Ganganagar, Weather by CustomWeather, © 2016

Note: Actual official high and low records may vary slightly from our data, if they occured in-between our weather recording intervals... More about our weather records

Advertising

Ganganagar Weather History for the Previous 24 Hours

Scroll right to see more
 ConditionsComfort  
Time TempWeatherWind HumidityBarometerVisibility
6:55 AM
Fri, Sep 30
81 °FFog.No wind84%29.77 "Hg2 mi
5:25 AM81 °FClear.No wind84%29.74 "Hg2 mi
4:55 AM81 °FPassing clouds.No wind84%29.74 "Hg2 mi
4:25 AM81 °FPassing clouds.5 mph84%29.74 "Hg2 mi
3:55 AM81 °FPassing clouds.5 mph84%29.74 "Hg2 mi
3:25 AM81 °FPassing clouds.No wind84%29.74 "Hg2 mi
2:55 AM81 °FPassing clouds.3 mph84%29.74 "Hg2 mi
2:25 AM82 °FPassing clouds.No wind79%29.74 "Hg2 mi
1:55 AM84 °FPassing clouds.No wind74%29.74 "Hg2 mi
1:25 AM84 °FPassing clouds.No wind74%29.74 "Hg2 mi
12:55 AM84 °FClear.3 mph74%29.74 "Hg3 mi
11:55 PM
Thu, Sep 29
86 °FClear.5 mph70%29.71 "Hg3 mi
11:25 PM86 °FClear.3 mph70%29.71 "Hg3 mi
10:55 PM86 °FClear.3 mph70%29.71 "Hg3 mi
10:25 PM86 °FClear.5 mph70%29.71 "Hg3 mi
9:25 PM88 °FPassing clouds.5 mph66%29.71 "Hg3 mi
8:55 PM90 °FPassing clouds.No wind63%29.71 "Hg3 mi
8:25 PM90 °FPassing clouds.3 mph63%29.71 "Hg3 mi
7:25 PM91 °FPassing clouds.5 mph56%29.68 "Hg3 mi
6:25 PM93 °FPassing clouds.3 mph53%29.68 "Hg3 mi
5:55 PM95 °FScattered clouds.3 mph50%29.68 "Hg3 mi
4:25 PM97 °FScattered clouds.3 mph47%29.68 "Hg3 mi
3:55 PM97 °FScattered clouds.No wind47%29.68 "Hg3 mi
3:25 PM97 °FScattered clouds.No wind47%29.68 "Hg3 mi
2:55 PM95 °FScattered clouds.6 mph50%29.71 "Hg3 mi
2:25 PM95 °FScattered clouds.6 mph50%29.71 "Hg3 mi
1:59 PM95 °FScattered clouds.No wind50%29.71 "Hg3 mi
12:59 PM93 °FPassing clouds.5 mph53%29.74 "Hg3 mi
12:29 PM93 °FPassing clouds.3 mph53%29.77 "Hg3 mi
11:59 AM91 °FClear.3 mph56%29.77 "Hg3 mi
11:29 AM90 °FClear.5 mph59%29.77 "Hg2 mi
10:59 AM88 °FClear.5 mph66%29.77 "Hg2 mi
10:30 AM88 °FHaze.7 mph66%29.68 "Hg3 mi
9:59 AM86 °FClear.6 mph66%29.80 "Hg2 mi
9:29 AM84 °FClear.6 mph70%29.77 "Hg2 mi
8:29 AM82 °FFog.5 mph79%29.77 "Hg1 mi
Weather by CustomWeather, © 2016

See weather overviewHow to use our weather pages